Location: Saratoga Springs
(43.0831°N, 73.7850°W)
Time: 09:43:58
(UTC-04:00)

Vanguard 2 Rocket - Pass Details

Date: 22 April 2024
Orbit: 556 x 3304 km, 32.9° (Epoch: 24 May)

Event Time Altitude Azimuth Distance (km) Brightness Sun altitude
Rises 21:56:54 0° 238° (WSW) 5,831 11.2 -21.2°
Reaches altitude 10° 22:00:21 10° 234° (SW) 5,130 10.8 -21.7°
Maximum altitude 22:16:07 55° 162° (SSE) 3,593 9.5 -23.7°
Drops below altitude 10° 22:35:20 10° 93° (E) 6,135 10.7 -25.9°
Sets 22:39:55 0° 90° (E) 6,992 11.1 -26.4°
